HVDC transfer

From www.emi.ea.govt.nz provided by the Electricity Authority (New Zealand)
Run at: 20240504210450

Parameters
Date range,18 Mar 2021 - 14 Apr 2021
Time scale,Trading period
Show,Average flow (MW)

Period start,Period end,Trading period,Direction,Energy transfer (GWh),Peak flow (MW),Average flow (MW)
18/03/2021 00:00:00,18/03/2021 00:30:00,1,Southward at Benmore,-0.175,-350,-350
18/03/2021 00:30:00,18/03/2021 01:00:00,2,Southward at Benmore,-0.215,-430,-430
18/03/2021 01:00:00,18/03/2021 01:30:00,3,Southward at Benmore,-0.196,-393,-393
18/03/2021 01:30:00,18/03/2021 02:00:00,4,Southward at Benmore,-0.195,-391,-391
18/03/2021 02:00:00,18/03/2021 02:30:00,5,Southward at Benmore,-0.194,-389,-389
18/03/2021 02:30:00,18/03/2021 03:00:00,6,Southward at Benmore,-0.190,-381,-381
18/03/2021 03:00:00,18/03/2021 03:30:00,7,Southward at Benmore,-0.179,-358,-358
18/03/2021 03:30:00,18/03/2021 04:00:00,8,Southward at Benmore,-0.184,-369,-369
18/03/2021 04:00:00,18/03/2021 04:30:00,9,Southward at Benmore,-0.168,-337,-337
18/03/2021 04:30:00,18/03/2021 05:00:00,10,Southward at Benmore,-0.166,-332,-332
18/03/2021 05:00:00,18/03/2021 05:30:00,11,Southward at Benmore,-0.117,-234,-234
18/03/2021 05:30:00,18/03/2021 06:00:00,12,Southward at Benmore,-0.089,-178,-178
18/03/2021 06:00:00,18/03/2021 06:30:00,13,Southward at Benmore,-0.078,-156,-156
18/03/2021 06:30:00,18/03/2021 07:00:00,14,Southward at Benmore,-0.009,-18,-18
18/03/2021 07:00:00,18/03/2021 07:30:00,15,Northward at Haywards,0.054,107,107
18/03/2021 07:30:00,18/03/2021 08:00:00,16,Northward at Haywards,0.066,131,131
18/03/2021 08:00:00,18/03/2021 08:30:00,17,Northward at Haywards,0.094,187,187
18/03/2021 08:30:00,18/03/2021 09:00:00,18,Northward at Haywards,0.123,246,246
18/03/2021 09:00:00,18/03/2021 09:30:00,19,Northward at Haywards,0.137,273,273
18/03/2021 09:30:00,18/03/2021 10:00:00,20,Northward at Haywards,0.148,295,295
18/03/2021 10:00:00,18/03/2021 10:30:00,21,Northward at Haywards,0.154,307,307
18/03/2021 10:30:00,18/03/2021 11:00:00,22,Northward at Haywards,0.148,295,295
18/03/2021 11:00:00,18/03/2021 11:30:00,23,Northward at Haywards,0.168,336,336
18/03/2021 11:30:00,18/03/2021 12:00:00,24,Northward at Haywards,0.184,367,367
18/03/2021 12:00:00,18/03/2021 12:30:00,25,Northward at Haywards,0.166,332,332
18/03/2021 12:30:00,18/03/2021 13:00:00,26,Northward at Haywards,0.170,339,339
18/03/2021 13:00:00,18/03/2021 13:30:00,27,Northward at Haywards,0.182,364,364
18/03/2021 13:30:00,18/03/2021 14:00:00,28,Northward at Haywards,0.182,363,363
18/03/2021 14:00:00,18/03/2021 14:30:00,29,Northward at Haywards,0.186,371,371
18/03/2021 14:30:00,18/03/2021 15:00:00,30,Northward at Haywards,0.213,426,426
18/03/2021 15:00:00,18/03/2021 15:30:00,31,Northward at Haywards,0.214,428,428
18/03/2021 15:30:00,18/03/2021 16:00:00,32,Northward at Haywards,0.224,447,447
18/03/2021 16:00:00,18/03/2021 16:30:00,33,Northward at Haywards,0.218,435,435
18/03/2021 16:30:00,18/03/2021 17:00:00,34,Northward at Haywards,0.205,409,409
18/03/2021 17:00:00,18/03/2021 17:30:00,35,Northward at Haywards,0.195,389,389
18/03/2021 17:30:00,18/03/2021 18:00:00,36,Northward at Haywards,0.182,364,364
18/03/2021 18:00:00,18/03/2021 18:30:00,37,Northward at Haywards,0.173,346,346
18/03/2021 18:30:00,18/03/2021 19:00:00,38,Northward at Haywards,0.135,270,270
18/03/2021 19:00:00,18/03/2021 19:30:00,39,Northward at Haywards,0.123,245,245
18/03/2021 19:30:00,18/03/2021 20:00:00,40,Northward at Haywards,0.129,258,258
18/03/2021 20:00:00,18/03/2021 20:30:00,41,Northward at Haywards,0.073,146,146
18/03/2021 20:30:00,18/03/2021 21:00:00,42,Northward at Haywards,0.061,122,122
18/03/2021 21:00:00,18/03/2021 21:30:00,43,Northward at Haywards,0.046,91,91
18/03/2021 21:30:00,18/03/2021 22:00:00,44,Northward at Haywards,0.031,62,62
18/03/2021 22:00:00,18/03/2021 22:30:00,45,Southward at Benmore,0.000,0,0
18/03/2021 22:30:00,18/03/2021 23:00:00,46,Southward at Benmore,-0.038,-76,-76
18/03/2021 23:00:00,18/03/2021 23:30:00,47,Southward at Benmore,-0.059,-119,-119
18/03/2021 23:30:00,19/03/2021 00:00:00,48,Southward at Benmore,-0.074,-149,-149
19/03/2021 00:00:00,19/03/2021 00:30:00,1,Southward at Benmore,-0.035,-71,-71
19/03/2021 00:30:00,19/03/2021 01:00:00,2,Southward at Benmore,-0.071,-142,-142
19/03/2021 01:00:00,19/03/2021 01:30:00,3,Southward at Benmore,-0.077,-155,-155
19/03/2021 01:30:00,19/03/2021 02:00:00,4,Southward at Benmore,-0.076,-152,-152
19/03/2021 02:00:00,19/03/2021 02:30:00,5,Southward at Benmore,-0.068,-136,-136
19/03/2021 02:30:00,19/03/2021 03:00:00,6,Southward at Benmore,-0.065,-131,-131
19/03/2021 03:00:00,19/03/2021 03:30:00,7,Southward at Benmore,-0.064,-129,-129
19/03/2021 03:30:00,19/03/2021 04:00:00,8,Southward at Benmore,-0.063,-127,-127
19/03/2021 04:00:00,19/03/2021 04:30:00,9,Southward at Benmore,-0.061,-122,-122
19/03/2021 04:30:00,19/03/2021 05:00:00,10,Southward at Benmore,-0.055,-111,-111
19/03/2021 05:00:00,19/03/2021 05:30:00,11,Northward at Haywards,0.011,21,21
19/03/2021 05:30:00,19/03/2021 06:00:00,12,Northward at Haywards,0.044,87,87
19/03/2021 06:00:00,19/03/2021 06:30:00,13,Northward at Haywards,0.023,45,45
19/03/2021 06:30:00,19/03/2021 07:00:00,14,Northward at Haywards,0.066,132,132
19/03/2021 07:00:00,19/03/2021 07:30:00,15,Northward at Haywards,0.112,224,224
19/03/2021 07:30:00,19/03/2021 08:00:00,16,Northward at Haywards,0.137,273,273
19/03/2021 08:00:00,19/03/2021 08:30:00,17,Northward at Haywards,0.162,323,323
19/03/2021 08:30:00,19/03/2021 09:00:00,18,Northward at Haywards,0.178,355,355
19/03/2021 09:00:00,19/03/2021 09:30:00,19,Northward at Haywards,0.197,393,393
19/03/2021 09:30:00,19/03/2021 10:00:00,20,Northward at Haywards,0.213,426,426
19/03/2021 10:00:00,19/03/2021 10:30:00,21,Northward at Haywards,0.219,438,438
19/03/2021 10:30:00,19/03/2021 11:00:00,22,Northward at Haywards,0.228,456,456
19/03/2021 11:00:00,19/03/2021 11:30:00,23,Northward at Haywards,0.240,479,479
19/03/2021 11:30:00,19/03/2021 12:00:00,24,Northward at Haywards,0.244,487,487
19/03/2021 12:00:00,19/03/2021 12:30:00,25,Northward at Haywards,0.243,486,486
19/03/2021 12:30:00,19/03/2021 13:00:00,26,Northward at Haywards,0.238,476,476
19/03/2021 13:00:00,19/03/2021 13:30:00,27,Northward at Haywards,0.235,470,470
19/03/2021 13:30:00,19/03/2021 14:00:00,28,Northward at Haywards,0.254,507,507
19/03/2021 14:00:00,19/03/2021 14:30:00,29,Northward at Haywards,0.245,490,490
19/03/2021 14:30:00,19/03/2021 15:00:00,30,Northward at Haywards,0.242,484,484
19/03/2021 15:00:00,19/03/2021 15:30:00,31,Northward at Haywards,0.252,503,503
19/03/2021 15:30:00,19/03/2021 16:00:00,32,Northward at Haywards,0.253,505,505
19/03/2021 16:00:00,19/03/2021 16:30:00,33,Northward at Haywards,0.233,466,466
19/03/2021 16:30:00,19/03/2021 17:00:00,34,Northward at Haywards,0.226,451,451
19/03/2021 17:00:00,19/03/2021 17:30:00,35,Northward at Haywards,0.211,422,422
19/03/2021 17:30:00,19/03/2021 18:00:00,36,Northward at Haywards,0.187,374,374
19/03/2021 18:00:00,19/03/2021 18:30:00,37,Northward at Haywards,0.169,338,338
19/03/2021 18:30:00,19/03/2021 19:00:00,38,Northward at Haywards,0.157,314,314
19/03/2021 19:00:00,19/03/2021 19:30:00,39,Northward at Haywards,0.123,246,246
19/03/2021 19:30:00,19/03/2021 20:00:00,40,Northward at Haywards,0.111,222,222
19/03/2021 20:00:00,19/03/2021 20:30:00,41,Northward at Haywards,0.105,209,209
19/03/2021 20:30:00,19/03/2021 21:00:00,42,Northward at Haywards,0.103,206,206
19/03/2021 21:00:00,19/03/2021 21:30:00,43,Northward at Haywards,0.084,167,167
19/03/2021 21:30:00,19/03/2021 22:00:00,44,Northward at Haywards,0.078,155,155
19/03/2021 22:00:00,19/03/2021 22:30:00,45,Northward at Haywards,0.063,125,125
19/03/2021 22:30:00,19/03/2021 23:00:00,46,Northward at Haywards,0.051,102,102
19/03/2021 23:00:00,19/03/2021 23:30:00,47,Northward at Haywards,0.011,22,22
19/03/2021 23:30:00,20/03/2021 00:00:00,48,Northward at Haywards,0.010,20,20
20/03/2021 00:00:00,20/03/2021 00:30:00,1,Northward at Haywards,0.023,45,45
20/03/2021 00:30:00,20/03/2021 01:00:00,2,Northward at Haywards,0.028,55,55
20/03/2021 01:00:00,20/03/2021 01:30:00,3,Northward at Haywards,0.032,63,63
20/03/2021 01:30:00,20/03/2021 02:00:00,4,Southward at Benmore,-0.024,-48,-48
20/03/2021 02:00:00,20/03/2021 02:30:00,5,Southward at Benmore,-0.045,-90,-90
20/03/2021 02:30:00,20/03/2021 03:00:00,6,Southward at Benmore,-0.049,-99,-99
20/03/2021 03:00:00,20/03/2021 03:30:00,7,Southward at Benmore,-0.052,-105,-105
20/03/2021 03:30:00,20/03/2021 04:00:00,8,Southward at Benmore,-0.061,-123,-123
20/03/2021 04:00:00,20/03/2021 04:30:00,9,Southward at Benmore,-0.067,-135,-135
20/03/2021 04:30:00,20/03/2021 05:00:00,10,Southward at Benmore,-0.062,-124,-124
20/03/2021 05:00:00,20/03/2021 05:30:00,11,Southward at Benmore,-0.034,-68,-68
20/03/2021 05:30:00,20/03/2021 06:00:00,12,Southward at Benmore,-0.024,-49,-49
20/03/2021 06:00:00,20/03/2021 06:30:00,13,Southward at Benmore,-0.001,-2,-2
20/03/2021 06:30:00,20/03/2021 07:00:00,14,Northward at Haywards,0.007,13,13
20/03/2021 07:00:00,20/03/2021 07:30:00,15,Northward at Haywards,0.031,61,61
20/03/2021 07:30:00,20/03/2021 08:00:00,16,Northward at Haywards,0.022,44,44
20/03/2021 08:00:00,20/03/2021 08:30:00,17,Northward at Haywards,0.084,168,168
20/03/2021 08:30:00,20/03/2021 09:00:00,18,Northward at Haywards,0.096,191,191
20/03/2021 09:00:00,20/03/2021 09:30:00,19,Northward at Haywards,0.121,242,242
20/03/2021 09:30:00,20/03/2021 10:00:00,20,Northward at Haywards,0.127,254,254
20/03/2021 10:00:00,20/03/2021 10:30:00,21,Northward at Haywards,0.132,263,263
20/03/2021 10:30:00,20/03/2021 11:00:00,22,Northward at Haywards,0.123,245,245
20/03/2021 11:00:00,20/03/2021 11:30:00,23,Northward at Haywards,0.106,212,212
20/03/2021 11:30:00,20/03/2021 12:00:00,24,Northward at Haywards,0.110,220,220
20/03/2021 12:00:00,20/03/2021 12:30:00,25,Northward at Haywards,0.110,219,219
20/03/2021 12:30:00,20/03/2021 13:00:00,26,Northward at Haywards,0.101,202,202
20/03/2021 13:00:00,20/03/2021 13:30:00,27,Northward at Haywards,0.061,121,121
20/03/2021 13:30:00,20/03/2021 14:00:00,28,Northward at Haywards,0.030,59,59
20/03/2021 14:00:00,20/03/2021 14:30:00,29,Northward at Haywards,0.019,38,38
20/03/2021 14:30:00,20/03/2021 15:00:00,30,Northward at Haywards,0.016,31,31
20/03/2021 15:00:00,20/03/2021 15:30:00,31,Northward at Haywards,0.072,144,144
20/03/2021 15:30:00,20/03/2021 16:00:00,32,Northward at Haywards,0.082,163,163
20/03/2021 16:00:00,20/03/2021 16:30:00,33,Northward at Haywards,0.081,161,161
20/03/2021 16:30:00,20/03/2021 17:00:00,34,Northward at Haywards,0.079,158,158
20/03/2021 17:00:00,20/03/2021 17:30:00,35,Northward at Haywards,0.101,201,201
20/03/2021 17:30:00,20/03/2021 18:00:00,36,Northward at Haywards,0.123,245,245
20/03/2021 18:00:00,20/03/2021 18:30:00,37,Northward at Haywards,0.105,210,210
20/03/2021 18:30:00,20/03/2021 19:00:00,38,Northward at Haywards,0.089,177,177
20/03/2021 19:00:00,20/03/2021 19:30:00,39,Northward at Haywards,0.093,185,185
20/03/2021 19:30:00,20/03/2021 20:00:00,40,Northward at Haywards,0.105,209,209
20/03/2021 20:00:00,20/03/2021 20:30:00,41,Northward at Haywards,0.111,221,221
20/03/2021 20:30:00,20/03/2021 21:00:00,42,Northward at Haywards,0.102,204,204
20/03/2021 21:00:00,20/03/2021 21:30:00,43,Northward at Haywards,0.089,177,177
20/03/2021 21:30:00,20/03/2021 22:00:00,44,Northward at Haywards,0.056,112,112
20/03/2021 22:00:00,20/03/2021 22:30:00,45,Northward at Haywards,0.054,108,108
20/03/2021 22:30:00,20/03/2021 23:00:00,46,Northward at Haywards,0.019,37,37
20/03/2021 23:00:00,20/03/2021 23:30:00,47,Southward at Benmore,-0.022,-45,-45
20/03/2021 23:30:00,21/03/2021 00:00:00,48,Southward at Benmore,-0.048,-97,-97
21/03/2021 00:00:00,21/03/2021 00:30:00,1,Southward at Benmore,-0.046,-92,-92
21/03/2021 00:30:00,21/03/2021 01:00:00,2,Southward at Benmore,-0.041,-83,-83
21/03/2021 01:00:00,21/03/2021 01:30:00,3,Southward at Benmore,-0.045,-90,-90
21/03/2021 01:30:00,21/03/2021 02:00:00,4,Southward at Benmore,-0.044,-89,-89
21/03/2021 02:00:00,21/03/2021 02:30:00,5,Southward at Benmore,-0.050,-100,-100
21/03/2021 02:30:00,21/03/2021 03:00:00,6,Southward at Benmore,-0.066,-132,-132
21/03/2021 03:00:00,21/03/2021 03:30:00,7,Southward at Benmore,-0.060,-120,-120
21/03/2021 03:30:00,21/03/2021 04:00:00,8,Southward at Benmore,-0.059,-119,-119
21/03/2021 04:00:00,21/03/2021 04:30:00,9,Southward at Benmore,-0.067,-134,-134
21/03/2021 04:30:00,21/03/2021 05:00:00,10,Southward at Benmore,-0.072,-145,-145
21/03/2021 05:00:00,21/03/2021 05:30:00,11,Southward at Benmore,-0.051,-102,-102
21/03/2021 05:30:00,21/03/2021 06:00:00,12,Southward at Benmore,-0.039,-79,-79
21/03/2021 06:00:00,21/03/2021 06:30:00,13,Southward at Benmore,-0.037,-75,-75
21/03/2021 06:30:00,21/03/2021 07:00:00,14,Southward at Benmore,-0.017,-34,-34
21/03/2021 07:00:00,21/03/2021 07:30:00,15,Northward at Haywards,0.015,30,30
21/03/2021 07:30:00,21/03/2021 08:00:00,16,Northward at Haywards,0.033,65,65
21/03/2021 08:00:00,21/03/2021 08:30:00,17,Northward at Haywards,0.063,126,126
21/03/2021 08:30:00,21/03/2021 09:00:00,18,Northward at Haywards,0.089,178,178
21/03/2021 09:00:00,21/03/2021 09:30:00,19,Northward at Haywards,0.116,231,231
21/03/2021 09:30:00,21/03/2021 10:00:00,20,Northward at Haywards,0.120,239,239
21/03/2021 10:00:00,21/03/2021 10:30:00,21,Northward at Haywards,0.106,211,211
21/03/2021 10:30:00,21/03/2021 11:00:00,22,Northward at Haywards,0.086,172,172
21/03/2021 11:00:00,21/03/2021 11:30:00,23,Northward at Haywards,0.091,182,182
21/03/2021 11:30:00,21/03/2021 12:00:00,24,Northward at Haywards,0.088,176,176
21/03/2021 12:00:00,21/03/2021 12:30:00,25,Northward at Haywards,0.084,167,167
21/03/2021 12:30:00,21/03/2021 13:00:00,26,Northward at Haywards,0.084,167,167
21/03/2021 13:00:00,21/03/2021 13:30:00,27,Northward at Haywards,0.080,159,159
21/03/2021 13:30:00,21/03/2021 14:00:00,28,Northward at Haywards,0.066,131,131
21/03/2021 14:00:00,21/03/2021 14:30:00,29,Northward at Haywards,0.060,119,119
21/03/2021 14:30:00,21/03/2021 15:00:00,30,Northward at Haywards,0.077,153,153
21/03/2021 15:00:00,21/03/2021 15:30:00,31,Northward at Haywards,0.082,163,163
21/03/2021 15:30:00,21/03/2021 16:00:00,32,Northward at Haywards,0.102,204,204
21/03/2021 16:00:00,21/03/2021 16:30:00,33,Northward at Haywards,0.105,210,210
21/03/2021 16:30:00,21/03/2021 17:00:00,34,Northward at Haywards,0.138,276,276
21/03/2021 17:00:00,21/03/2021 17:30:00,35,Northward at Haywards,0.124,247,247
21/03/2021 17:30:00,21/03/2021 18:00:00,36,Northward at Haywards,0.147,293,293
21/03/2021 18:00:00,21/03/2021 18:30:00,37,Northward at Haywards,0.135,270,270
21/03/2021 18:30:00,21/03/2021 19:00:00,38,Northward at Haywards,0.133,265,265
21/03/2021 19:00:00,21/03/2021 19:30:00,39,Northward at Haywards,0.135,269,269
21/03/2021 19:30:00,21/03/2021 20:00:00,40,Northward at Haywards,0.150,300,300
21/03/2021 20:00:00,21/03/2021 20:30:00,41,Northward at Haywards,0.146,291,291
21/03/2021 20:30:00,21/03/2021 21:00:00,42,Northward at Haywards,0.143,285,285
21/03/2021 21:00:00,21/03/2021 21:30:00,43,Northward at Haywards,0.117,234,234
21/03/2021 21:30:00,21/03/2021 22:00:00,44,Northward at Haywards,0.106,212,212
21/03/2021 22:00:00,21/03/2021 22:30:00,45,Northward at Haywards,0.069,137,137
21/03/2021 22:30:00,21/03/2021 23:00:00,46,Northward at Haywards,0.028,55,55
21/03/2021 23:00:00,21/03/2021 23:30:00,47,Southward at Benmore,-0.007,-14,-14
21/03/2021 23:30:00,22/03/2021 00:00:00,48,Southward at Benmore,-0.015,-30,-30
22/03/2021 00:00:00,22/03/2021 00:30:00,1,Northward at Haywards,0.011,21,21
22/03/2021 00:30:00,22/03/2021 01:00:00,2,Southward at Benmore,-0.008,-17,-17
22/03/2021 01:00:00,22/03/2021 01:30:00,3,Southward at Benmore,-0.019,-38,-38
22/03/2021 01:30:00,22/03/2021 02:00:00,4,Southward at Benmore,-0.027,-55,-55
22/03/2021 02:00:00,22/03/2021 02:30:00,5,Southward at Benmore,-0.013,-26,-26
22/03/2021 02:30:00,22/03/2021 03:00:00,6,Southward at Benmore,-0.010,-21,-21
22/03/2021 03:00:00,22/03/2021 03:30:00,7,Southward at Benmore,-0.013,-26,-26
22/03/2021 03:30:00,22/03/2021 04:00:00,8,Southward at Benmore,-0.016,-33,-33
22/03/2021 04:00:00,22/03/2021 04:30:00,9,Southward at Benmore,-0.014,-28,-28
22/03/2021 04:30:00,22/03/2021 05:00:00,10,Northward at Haywards,0.001,2,2
22/03/2021 05:00:00,22/03/2021 05:30:00,11,Northward at Haywards,0.042,83,83
22/03/2021 05:30:00,22/03/2021 06:00:00,12,Northward at Haywards,0.098,195,195
22/03/2021 06:00:00,22/03/2021 06:30:00,13,Northward at Haywards,0.111,221,221
22/03/2021 06:30:00,22/03/2021 07:00:00,14,Northward at Haywards,0.137,274,274
22/03/2021 07:00:00,22/03/2021 07:30:00,15,Northward at Haywards,0.197,394,394
22/03/2021 07:30:00,22/03/2021 08:00:00,16,Northward at Haywards,0.212,424,424
22/03/2021 08:00:00,22/03/2021 08:30:00,17,Northward at Haywards,0.250,499,499
22/03/2021 08:30:00,22/03/2021 09:00:00,18,Northward at Haywards,0.229,457,457
22/03/2021 09:00:00,22/03/2021 09:30:00,19,Northward at Haywards,0.205,409,409
22/03/2021 09:30:00,22/03/2021 10:00:00,20,Northward at Haywards,0.210,419,419
22/03/2021 10:00:00,22/03/2021 10:30:00,21,Northward at Haywards,0.212,424,424
22/03/2021 10:30:00,22/03/2021 11:00:00,22,Northward at Haywards,0.214,428,428
22/03/2021 11:00:00,22/03/2021 11:30:00,23,Northward at Haywards,0.215,430,430
22/03/2021 11:30:00,22/03/2021 12:00:00,24,Northward at Haywards,0.222,443,443
22/03/2021 12:00:00,22/03/2021 12:30:00,25,Northward at Haywards,0.217,433,433
22/03/2021 12:30:00,22/03/2021 13:00:00,26,Northward at Haywards,0.197,393,393
22/03/2021 13:00:00,22/03/2021 13:30:00,27,Northward at Haywards,0.213,425,425
22/03/2021 13:30:00,22/03/2021 14:00:00,28,Northward at Haywards,0.212,423,423
22/03/2021 14:00:00,22/03/2021 14:30:00,29,Northward at Haywards,0.202,403,403
22/03/2021 14:30:00,22/03/2021 15:00:00,30,Northward at Haywards,0.203,405,405
22/03/2021 15:00:00,22/03/2021 15:30:00,31,Northward at Haywards,0.218,435,435
22/03/2021 15:30:00,22/03/2021 16:00:00,32,Northward at Haywards,0.228,456,456
22/03/2021 16:00:00,22/03/2021 16:30:00,33,Northward at Haywards,0.231,462,462
22/03/2021 16:30:00,22/03/2021 17:00:00,34,Northward at Haywards,0.224,447,447
22/03/2021 17:00:00,22/03/2021 17:30:00,35,Northward at Haywards,0.222,444,444
22/03/2021 17:30:00,22/03/2021 18:00:00,36,Northward at Haywards,0.192,383,383
22/03/2021 18:00:00,22/03/2021 18:30:00,37,Northward at Haywards,0.166,331,331
22/03/2021 18:30:00,22/03/2021 19:00:00,38,Northward at Haywards,0.153,305,305
22/03/2021 19:00:00,22/03/2021 19:30:00,39,Northward at Haywards,0.146,292,292
22/03/2021 19:30:00,22/03/2021 20:00:00,40,Northward at Haywards,0.145,290,290
22/03/2021 20:00:00,22/03/2021 20:30:00,41,Northward at Haywards,0.127,253,253
22/03/2021 20:30:00,22/03/2021 21:00:00,42,Northward at Haywards,0.122,244,244
22/03/2021 21:00:00,22/03/2021 21:30:00,43,Northward at Haywards,0.110,219,219
22/03/2021 21:30:00,22/03/2021 22:00:00,44,Northward at Haywards,0.099,198,198
22/03/2021 22:00:00,22/03/2021 22:30:00,45,Northward at Haywards,0.069,137,137
22/03/2021 22:30:00,22/03/2021 23:00:00,46,Northward at Haywards,0.034,68,68
22/03/2021 23:00:00,22/03/2021 23:30:00,47,Northward at Haywards,0.036,72,72
22/03/2021 23:30:00,23/03/2021 00:00:00,48,Northward at Haywards,0.020,40,40
23/03/2021 00:00:00,23/03/2021 00:30:00,1,Northward at Haywards,0.002,4,4
23/03/2021 00:30:00,23/03/2021 01:00:00,2,Northward at Haywards,0.002,3,3
23/03/2021 01:00:00,23/03/2021 01:30:00,3,Southward at Benmore,-0.005,-11,-11
23/03/2021 01:30:00,23/03/2021 02:00:00,4,Southward at Benmore,-0.007,-15,-15
23/03/2021 02:00:00,23/03/2021 02:30:00,5,Southward at Benmore,-0.010,-21,-21
23/03/2021 02:30:00,23/03/2021 03:00:00,6,Southward at Benmore,-0.002,-5,-5
23/03/2021 03:00:00,23/03/2021 03:30:00,7,Northward at Haywards,0.003,5,5
23/03/2021 03:30:00,23/03/2021 04:00:00,8,Northward at Haywards,0.007,13,13
23/03/2021 04:00:00,23/03/2021 04:30:00,9,Northward at Haywards,0.012,24,24
23/03/2021 04:30:00,23/03/2021 05:00:00,10,Northward at Haywards,0.006,12,12
23/03/2021 05:00:00,23/03/2021 05:30:00,11,Northward at Haywards,0.033,66,66
23/03/2021 05:30:00,23/03/2021 06:00:00,12,Northward at Haywards,0.073,146,146
23/03/2021 06:00:00,23/03/2021 06:30:00,13,Northward at Haywards,0.110,220,220
23/03/2021 06:30:00,23/03/2021 07:00:00,14,Northward at Haywards,0.185,370,370
23/03/2021 07:00:00,23/03/2021 07:30:00,15,Northward at Haywards,0.194,388,388
23/03/2021 07:30:00,23/03/2021 08:00:00,16,Northward at Haywards,0.230,460,460
23/03/2021 08:00:00,23/03/2021 08:30:00,17,Northward at Haywards,0.234,467,467
23/03/2021 08:30:00,23/03/2021 09:00:00,18,Northward at Haywards,0.237,473,473
23/03/2021 09:00:00,23/03/2021 09:30:00,19,Northward at Haywards,0.231,462,462
23/03/2021 09:30:00,23/03/2021 10:00:00,20,Northward at Haywards,0.231,462,462
23/03/2021 10:00:00,23/03/2021 10:30:00,21,Northward at Haywards,0.206,412,412
23/03/2021 10:30:00,23/03/2021 11:00:00,22,Northward at Haywards,0.214,427,427
23/03/2021 11:00:00,23/03/2021 11:30:00,23,Northward at Haywards,0.233,466,466
23/03/2021 11:30:00,23/03/2021 12:00:00,24,Northward at Haywards,0.198,396,396
23/03/2021 12:00:00,23/03/2021 12:30:00,25,Northward at Haywards,0.187,374,374
23/03/2021 12:30:00,23/03/2021 13:00:00,26,Northward at Haywards,0.192,383,383
23/03/2021 13:00:00,23/03/2021 13:30:00,27,Northward at Haywards,0.200,399,399
23/03/2021 13:30:00,23/03/2021 14:00:00,28,Northward at Haywards,0.166,331,331
23/03/2021 14:00:00,23/03/2021 14:30:00,29,Northward at Haywards,0.187,373,373
23/03/2021 14:30:00,23/03/2021 15:00:00,30,Northward at Haywards,0.193,386,386
23/03/2021 15:00:00,23/03/2021 15:30:00,31,Northward at Haywards,0.194,388,388
23/03/2021 15:30:00,23/03/2021 16:00:00,32,Northward at Haywards,0.228,455,455
23/03/2021 16:00:00,23/03/2021 16:30:00,33,Northward at Haywards,0.221,442,442
23/03/2021 16:30:00,23/03/2021 17:00:00,34,Northward at Haywards,0.252,504,504
23/03/2021 17:00:00,23/03/2021 17:30:00,35,Northward at Haywards,0.223,445,445
23/03/2021 17:30:00,23/03/2021 18:00:00,36,Northward at Haywards,0.216,431,431
23/03/2021 18:00:00,23/03/2021 18:30:00,37,Northward at Haywards,0.211,422,422
23/03/2021 18:30:00,23/03/2021 19:00:00,38,Northward at Haywards,0.193,385,385
23/03/2021 19:00:00,23/03/2021 19:30:00,39,Northward at Haywards,0.183,365,365
23/03/2021 19:30:00,23/03/2021 20:00:00,40,Northward at Haywards,0.184,367,367
23/03/2021 20:00:00,23/03/2021 20:30:00,41,Northward at Haywards,0.215,430,430
23/03/2021 20:30:00,23/03/2021 21:00:00,42,Northward at Haywards,0.176,351,351
23/03/2021 21:00:00,23/03/2021 21:30:00,43,Northward at Haywards,0.149,297,297
23/03/2021 21:30:00,23/03/2021 22:00:00,44,Northward at Haywards,0.112,223,223
23/03/2021 22:00:00,23/03/2021 22:30:00,45,Northward at Haywards,0.092,184,184
23/03/2021 22:30:00,23/03/2021 23:00:00,46,Northward at Haywards,0.050,99,99
23/03/2021 23:00:00,23/03/2021 23:30:00,47,Southward at Benmore,0.000,0,0
23/03/2021 23:30:00,24/03/2021 00:00:00,48,Southward at Benmore,-0.002,-5,-5
24/03/2021 00:00:00,24/03/2021 00:30:00,1,Northward at Haywards,0.015,29,29
24/03/2021 00:30:00,24/03/2021 01:00:00,2,Southward at Benmore,0.000,0,0
24/03/2021 01:00:00,24/03/2021 01:30:00,3,Northward at Haywards,0.005,9,9
24/03/2021 01:30:00,24/03/2021 02:00:00,4,Southward at Benmore,-0.032,-65,-65
24/03/2021 02:00:00,24/03/2021 02:30:00,5,Southward at Benmore,-0.023,-47,-47
24/03/2021 02:30:00,24/03/2021 03:00:00,6,Southward at Benmore,-0.022,-45,-45
24/03/2021 03:00:00,24/03/2021 03:30:00,7,Southward at Benmore,-0.029,-58,-58
24/03/2021 03:30:00,24/03/2021 04:00:00,8,Southward at Benmore,-0.023,-47,-47
24/03/2021 04:00:00,24/03/2021 04:30:00,9,Southward at Benmore,-0.020,-41,-41